[[{"header":{"parameterUnit":"m.s-1","parameterCategory":1,"la1":30.2991,"la2":30.254,"lo1":-89.0895,"lo2":-89.0444,"dy":0.0017,"dx":0.0017,"nx":28,"ny":28,"refTime":"2025-06-06T21:00:00:Z","depth":0,"parameterNumber":2,"parameterNumberName":"U-component_of_WINDS"},"data":[0,0,0,0,0,0,0,0,0,0,0,0,0,0,0,0,0,0,0,0,0,0,0,0,0,0,0,0,0,0,0,0,0,0,0,0,0,0,0,0,0,0,0,0,0,0,0,0,0,0,0,0,0,0,0,0,0,0,2.2116,2.2118,0,2.2245,2.2246,2.2248,2.226,2.2258,2.2257,2.2256,2.2387,2.2392,2.2396,0,0,0,0,0,0,0,0,0,0,0,0,0,2.1879,2.1883,2.2116,2.2118,2.2119,2.2245,2.2246,2.2248,2.226,2.2258,2.2257,2.2255,2.2386,2.2391,2.2397,0,0,0,0,0,0,0,0,0,0,0,0,0,2.1992,2.1884,2.2116,2.214,2.2144,2.2244,2.2247,2.2249,2.226,2.2258,2.2256,2.2254,2.2384,2.2391,2.2398,2.2482,0,0,2.2419,2.2423,0,0,0,0,0,0,0,0,2.1986,2.2001,2.2135,2.2139,2.2143,2.2234,2.2211,2.2327,2.2261,2.2216,2.2256,2.2253,2.2338,2.2349,2.2377,2.2489,2.2494,2.242,2.2424,2.2428,2.243,0,0,0,0,0,0,0,2.1978,2.1995,2.2167,2.2137,2.2142,2.2144,2.2158,2.2233,2.2287,2.222,2.2221,2.2236,2.234,2.237,2.238,2.2496,2.242,2.2426,2.2431,2.2433,2.2682,2.2684,0,0,0,0,0,0,2.1965,2.1989,2.2163,2.2171,2.2058,2.215,2.2166,2.2207,2.2286,2.2296,2.2238,2.2236,2.2359,2.2372,2.2385,2.2489,2.2427,2.2434,2.2438,2.268,2.2682,2.2685,0,0,0,0,0,0,2.196,2.1981,2.2158,2.208,2.2103,2.2156,2.2203,2.2211,2.2241,2.23,2.2309,2.2259,2.2358,2.2375,2.2458,2.2493,2.2437,2.2444,2.2677,2.268,2.2684,2.2697,0,0,0,0,0,0,2.1953,2.1979,2.2012,2.2081,2.2107,2.2229,2.2205,2.2215,2.2254,2.2253,2.2322,2.2332,2.2358,2.2447,2.2465,2.2502,2.2449,2.2674,2.2678,2.2683,2.2693,2.27,2.2706,0,0,0,0,0,2.1945,2.2011,2.2014,2.2035,2.215,2.2231,2.2246,2.2274,2.2256,2.229,2.2327,2.233,2.2486,2.2455,2.2476,2.2516,2.2672,2.2677,2.2682,2.2691,2.2699,2.2706,0,0,0,0,0,0,2.1945,2.2021,2.2025,2.2115,2.2166,2.2233,2.2276,2.2283,2.234,2.2337,2.237,2.2385,2.2467,2.2499,2.2464,2.2601,2.2577,2.2587,2.2577,2.2585,2.2591,2.2582,2.2455,0,0,0,0,0,2.1956,2.2016,2.2078,2.2152,2.2178,2.2222,2.2259,2.2276,2.2331,2.2353,2.2396,2.2449,2.2509,2.2549,2.2609,2.2698,2.2713,2.2735,2.2742,2.2747,2.2754,2.2803,2.2813,2.2702,2.2702,2.2702,0,0,2.1979,2.2027,2.2063,2.2153,2.2195,2.2256,2.2241,2.2306,2.2351,2.2363,2.2443,2.2477,2.2537,2.2623,2.2664,2.2653,2.2788,2.2753,2.2757,2.2762,2.2809,2.282,2.2829,2.2706,2.2705,2.2704,0,0,2.2051,2.2094,2.216,2.2202,2.2265,2.2294,2.231,2.2375,2.2398,2.2479,2.2489,2.2542,2.2647,2.269,2.2725,2.2811,2.2816,2.283,2.2863,2.291,2.2919,2.2926,2.2956,2.2967,2.2837,2.2837,2.2837,0,2.2071,2.2164,2.2193,2.2258,2.2296,2.2309,2.2375,2.2414,2.2494,2.252,2.2507,2.2638,2.268,2.2776,2.2796,2.2825,2.2843,2.2822,2.2915,2.2923,2.2931,2.296,2.2971,2.2839,2.2839,2.2838,2.2838,0,2.2185,2.2249,2.2294,2.237,2.2414,2.2479,2.2517,2.2558,2.2571,2.2601,2.2683,2.2733,2.2802,2.2826,2.284,2.2924,2.2915,2.2908,2.2885,2.2942,2.297,2.2981,2.2841,2.284,2.284,2.2839,0,0,2.2262,2.2352,2.2369,2.2403,2.2473,2.2523,2.2588,2.2655,2.2689,2.2743,2.2798,2.2885,2.2879,2.2919,2.2937,2.2978,2.3042,2.2966,2.2968,2.2978,2.3136,2.314,2.3152,2.3045,2.3047,2.3049,2.313,0,2.2342,2.2459,2.2486,2.2586,2.2644,2.2656,2.2713,2.2761,2.2791,2.2844,2.2876,2.2937,2.2925,2.2949,2.299,2.3026,2.3074,2.302,2.3096,2.3098,2.308,2.3167,2.3173,2.3247,2.3141,2.3143,2.3145,0,2.2451,2.2507,2.2613,2.2674,2.27,2.275,2.2813,2.2865,2.2919,2.2938,2.2981,2.2995,2.3062,2.3035,2.3127,2.309,2.3122,2.3144,2.3147,2.3156,2.3125,2.3177,2.3271,2.3282,2.3162,2.3161,2.3159,0,2.2496,2.2598,2.2674,2.2703,2.2777,2.2811,2.2844,2.2896,2.2935,2.299,2.3015,2.3077,2.3111,2.3158,2.3187,2.3165,2.3277,2.3253,2.3293,2.3292,2.3316,2.3314,2.3416,2.3337,2.3337,2.3337,2.3337,0,2.2582,2.2646,2.2695,2.2742,2.2813,2.2843,2.2913,2.2945,2.2991,2.3044,2.3058,2.3107,2.3143,2.3196,2.322,2.3292,2.3307,2.3323,2.3328,2.3322,2.332,2.3343,2.3339,2.334,2.3339,2.3339,2.3338,0,2.2644,2.268,2.2764,2.2826,2.2843,2.2893,2.2946,2.2991,2.302,2.3086,2.3103,2.3149,2.3212,2.3246,2.3326,2.3341,2.3422,2.3425,2.3403,2.3405,2.3444,2.3439,2.3565,2.3582,2.3492,2.3492,2.3493,0,2.2697,2.2747,2.2814,2.285,2.2883,2.2941,2.298,2.3011,2.3051,2.3116,2.3153,2.3217,2.327,2.3371,2.341,2.3471,2.3475,2.3514,2.3484,2.3475,2.3474,2.3471,2.3475,2.352,2.3521,2.3521,2.3522,0,2.2787,2.2801,2.2857,2.2919,2.2965,2.3015,2.3065,2.3093,2.3132,2.3176,2.3241,2.3282,2.3362,2.3425,2.3488,2.352,2.3527,2.3531,2.3543,2.3537,2.3522,2.353,2.3417,2.3528,2.3527,2.3527,2.3527,2.3526,2.2846,2.289,2.2944,2.3005,2.3045,2.3091,2.3136,2.317,2.3225,2.3293,2.3308,2.3376,2.3428,2.3513,2.3547,2.36,2.3592,2.361,2.3615,2.3619,2.362,2.3514,2.3612,2.3611,2.3611,2.3611,2.3611,0,2.2935,2.297,2.3027,2.3095,2.3143,2.3145,2.3199,2.3239,2.3299,2.3347,2.3398,2.3472,2.3533,2.3576,2.3638,2.3672,2.3676,2.3687,2.3685,2.3692,2.3624,2.3607,2.3682,2.3682,2.3682,2.3682,2.3682,2.3682,2.2988,2.3062,2.3083,2.3176,2.3211,2.3278,2.3308,2.335,2.3388,2.347,2.352,2.3548,2.3594,2.3659,2.3714,2.3725,2.3747,2.3757,2.3768,2.3704,2.3697,2.3689,2.3673,2.3762,2.3762,2.3832,2.3832,2.3833]},{"header":{"parameterUnit":"m.s-1","parameterCategory":1,"la1":30.2991,"la2":30.254,"lo1":-89.0895,"lo2":-89.0444,"dy":0.0017,"dx":0.0017,"nx":28,"ny":28,"refTime":"2025-06-06T21:00:00:Z","depth":0,"parameterNumber":3,"parameterNumberName":"V-component_of_WINDS"},"data":[0,0,0,0,0,0,0,0,0,0,0,0,0,0,0,0,0,0,0,0,0,0,0,0,0,0,0,0,0,0,0,0,0,0,0,0,0,0,0,0,0,0,0,0,0,0,0,0,0,0,0,0,0,0,0,0,0,0,5.5225,5.5226,0,5.5269,5.527,5.527,5.5246,5.5245,5.5244,5.5243,5.5282,5.5284,5.5286,0,0,0,0,0,0,0,0,0,0,0,0,0,5.5115,5.5117,5.5225,5.5226,5.5226,5.5269,5.527,5.527,5.5247,5.5245,5.5244,5.5242,5.5281,5.5284,5.5286,0,0,0,0,0,0,0,0,0,0,0,0,0,5.5161,5.5118,5.5225,5.522,5.522,5.5269,5.527,5.527,5.5247,5.5245,5.5243,5.5242,5.5281,5.5284,5.5287,5.5342,0,0,5.5297,5.5298,0,0,0,0,0,0,0,0,5.5159,5.5165,5.522,5.522,5.522,5.5251,5.5245,5.5294,5.5247,5.5236,5.5243,5.5241,5.5273,5.5276,5.5288,5.5344,5.5345,5.5297,5.5299,5.53,5.5301,0,0,0,0,0,0,0,5.5155,5.5163,5.5242,5.5221,5.5221,5.5213,5.5218,5.5254,5.5264,5.5237,5.5236,5.5242,5.5272,5.5285,5.5289,5.5346,5.5297,5.53,5.5302,5.5303,5.5447,5.5449,0,0,0,0,0,0,5.5153,5.5161,5.5241,5.5244,5.5185,5.5217,5.5222,5.5243,5.5263,5.5265,5.5243,5.524,5.5281,5.5285,5.529,5.5355,5.53,5.5303,5.5305,5.5445,5.5448,5.545,0,0,0,0,0,0,5.5151,5.5161,5.5239,5.5202,5.5211,5.5221,5.5244,5.5244,5.5257,5.5268,5.5269,5.5255,5.5279,5.5286,5.5329,5.5356,5.5305,5.5307,5.5443,5.5446,5.5449,5.5486,0,0,0,0,0,0,5.5148,5.516,5.5182,5.5203,5.5213,5.5279,5.5246,5.5246,5.5264,5.526,5.5279,5.528,5.5279,5.5325,5.5332,5.536,5.531,5.5441,5.5444,5.5448,5.5482,5.549,5.5496,0,0,0,0,0,5.5144,5.519,5.5184,5.5194,5.5242,5.5281,5.5287,5.5286,5.5266,5.5287,5.5294,5.528,5.5352,5.5329,5.5338,5.5366,5.5439,5.5443,5.5447,5.5479,5.5488,5.5496,0,0,0,0,0,0,5.5171,5.5193,5.5186,5.524,5.5259,5.5277,5.5304,5.5295,5.5319,5.5315,5.531,5.5314,5.536,5.5367,5.5341,5.542,5.5392,5.5398,5.5413,5.5422,5.5429,5.5425,5.5313,0,0,0,0,0,5.5183,5.5215,5.5232,5.5278,5.5288,5.5295,5.5312,5.5309,5.5328,5.5335,5.5345,5.5362,5.5388,5.5406,5.5431,5.5484,5.5486,5.5507,5.5514,5.552,5.5525,5.5552,5.5561,5.5464,5.5464,5.5464,0,0,5.5209,5.5225,5.5245,5.5284,5.5298,5.5329,5.5301,5.5336,5.5358,5.534,5.5382,5.5389,5.5408,5.5456,5.5478,5.5464,5.5553,5.5525,5.553,5.5532,5.5557,5.5567,5.5575,5.5467,5.5466,5.5466,0,0,5.5271,5.5287,5.5327,5.5342,5.5365,5.537,5.5379,5.5399,5.5404,5.5446,5.5433,5.5458,5.5505,5.5518,5.5531,5.5599,5.5586,5.5607,5.5642,5.5669,5.5677,5.5683,5.5706,5.5715,5.5612,5.5612,5.5613,0,5.5299,5.5347,5.5348,5.5384,5.54,5.5387,5.5426,5.5441,5.547,5.5481,5.5466,5.5523,5.5535,5.5585,5.5602,5.5614,5.5623,5.5604,5.5676,5.5683,5.5689,5.5711,5.5719,5.5615,5.5615,5.5614,5.5614,0,5.538,5.5414,5.5443,5.5474,5.5494,5.5531,5.5535,5.5555,5.5551,5.5556,5.5599,5.5612,5.564,5.5652,5.5647,5.5702,5.5692,5.5677,5.5648,5.5701,5.5721,5.5729,5.5618,5.5617,5.5617,5.5616,0,0,5.5459,5.549,5.5501,5.5514,5.5539,5.5564,5.56,5.5628,5.5645,5.5665,5.5694,5.5734,5.572,5.5734,5.5731,5.5755,5.5806,5.5736,5.5737,5.5748,5.5865,5.5876,5.5886,5.5799,5.58,5.5802,5.5863,0,5.5521,5.5587,5.5588,5.5647,5.5677,5.5665,5.5696,5.5713,5.5719,5.5744,5.575,5.5778,5.5758,5.5766,5.5789,5.5795,5.583,5.5791,5.5823,5.5824,5.5818,5.5896,5.5908,5.5965,5.5871,5.5873,5.5874,0,5.5603,5.5628,5.5691,5.5711,5.5724,5.5752,5.5778,5.5803,5.5821,5.5824,5.5841,5.5834,5.5869,5.5841,5.5887,5.5861,5.5874,5.5879,5.5881,5.5883,5.5851,5.5899,5.5984,5.5992,5.5886,5.5885,5.5884,0,5.5653,5.5702,5.5746,5.5758,5.5783,5.5802,5.5813,5.5831,5.5848,5.587,5.5881,5.5906,5.5919,5.5938,5.5938,5.5918,5.5985,5.5957,5.5986,5.5986,5.5999,5.5998,5.6086,5.6011,5.601,5.601,5.601,0,5.5722,5.576,5.5768,5.5795,5.5837,5.5838,5.5878,5.5887,5.5903,5.5929,5.592,5.5945,5.5944,5.5969,5.5969,5.6006,5.6013,5.6014,5.6013,5.6014,5.6014,5.6022,5.6017,5.6012,5.6012,5.6012,5.6011,0,5.5783,5.5791,5.5837,5.5858,5.5864,5.5894,5.591,5.5934,5.594,5.5973,5.5981,5.5989,5.6018,5.602,5.6052,5.6052,5.6098,5.6093,5.6092,5.609,5.6119,5.6116,5.6214,5.6226,5.6144,5.6145,5.6145,0,5.5826,5.5855,5.588,5.5898,5.5911,5.594,5.5958,5.5959,5.5978,5.6002,5.6023,5.6051,5.6073,5.6119,5.6126,5.6151,5.6146,5.6179,5.6149,5.6149,5.6145,5.6142,5.6144,5.6184,5.6185,5.6185,5.6186,0,5.5901,5.5903,5.593,5.5959,5.5981,5.6003,5.6024,5.6038,5.6042,5.6063,5.6094,5.6111,5.6145,5.6172,5.6197,5.6205,5.6196,5.6196,5.6203,5.6203,5.6201,5.6201,5.6106,5.6193,5.6192,5.6192,5.6191,5.6191,5.5953,5.5978,5.6,5.603,5.6046,5.6066,5.609,5.6099,5.6125,5.6154,5.6153,5.6186,5.6203,5.6235,5.6246,5.627,5.6259,5.627,5.6273,5.6275,5.6278,5.6199,5.6274,5.6274,5.6274,5.6274,5.6274,0,5.6026,5.6039,5.6068,5.6098,5.6121,5.6113,5.6135,5.6154,5.6184,5.6202,5.6225,5.6259,5.6286,5.6296,5.6321,5.6339,5.6335,5.6345,5.6343,5.6345,5.6287,5.6277,5.6348,5.6348,5.6348,5.6348,5.6348,5.6348,5.6066,5.6109,5.6114,5.6163,5.6176,5.621,5.6223,5.624,5.6254,5.6294,5.6316,5.6324,5.6338,5.6364,5.6388,5.639,5.6399,5.6411,5.6411,5.6356,5.6349,5.6342,5.6332,5.6413,5.6413,5.6466,5.6467,5.6467]}]]